User: anonymous   Login
Location: Fauquembergues
(50.6005°N, 2.0987°E)
Time: 13:07:01
(UTC+00:00)
Language:

Cosmos 2221 Rocket - Orbit

View from above orbital plane
View from above orbital plane
View from above satellite
View from above satellite

Ground track
Ground track

The orbit data is extracted from the following two-line orbital elements,

1 22237U 92080B   20262.60082730 +.00000053 +00000-0 +41477-5 0  9999
2 22237 082.5090 091.2195 0018189 276.5874 083.3268 14.78417124499084
Epoch (UTC): 18 September 2020 14:25:11
Eccentricity: 0.0018189
inclination: 82.5090°
perigee height: 621 km
apogee height: 647 km
right ascension of ascending node: 91.2195°
argument of perigee: 276.5874°
revolutions per day: 14.78417124
mean anomaly at epoch: 83.3268°
orbit number at epoch: 49908

The dashed part of the orbit path shows where the satellite is in the earth's shadow,  

DLR